STARLINK-38090

Last updated on Sun Aug 09 2026 00:02:04 GMT+0000 (Coordinated Universal Time)

1 69994U 26159V 26220.52253192 .00144907 00000+0 95538-3 0 9998 2 69994 97.2851 60.5602 0001255 62.4959 297.6434 15.75204946 5708
UTC large
Height (km)
Speed (km/s)
/
Latitude / Longitude
Inclination (degrees)
Orbital Period (minutes)
Azimuth
Elevation
Range (km)
Doppler Factor

Next 0 passes for location: London (51.5072 / 0.1276)

No passes found over London.
STARLINK-38090